Location: Bratislava
(0.0000°N, 17.1167°E)
Time: 04:17:33
(UTC+01:00)

Cosmos 1680 Rocket - Pass Details

Date: 24 January 2021
Orbit: 761 x 780 km, 74.1° (Epoch: 06 March)

Event Time Altitude Azimuth Distance (km) Brightness Sun altitude
Rises 18:47:24 0° 4° (N) 3,205 6.5 -10.3°
Reaches altitude 10° 18:49:57 10° 13° (NNE) 2,281 5.6 -10.9°
Maximum altitude 18:54:37 35° 78° (ENE) 1,216 4.0 -12.0°
Drops below altitude 10° 18:59:19 10° 143° (SE) 2,292 5.8 -13.1°
Sets 19:01:52 0° 151° (SSE) 3,221 6.6 -13.7°
